| time (UTC) | temp F | wind direction | speed knots | gust knots | rain 1hr in | rain 24hr in | rain mn in | humidity % | barometer mb |
| 20260508211556 | 60 | 126 | 3.5 | 7.8 | 0.00 | 0.00 | 0.00 | 62 | 1021.8 |
| 20260508210056 | 59 | 264 | 4.3 | 9.6 | 0.00 | 0.00 | 0.00 | 58 | 1021.8 |
| 20260508204551 | 58 | 244 | 0.9 | 9.6 | 0.00 | 0.00 | 0.00 | 62 | 1021.8 |
| 20260508203059 | 58 | 113 | 2.6 | 7.0 | 0.00 | 0.00 | 0.00 | 64 | 1021.8 |
| 20260508201553 | 58 | 182 | 5.2 | 9.6 | 0.00 | 0.00 | 0.00 | 59 | 1021.9 |
| 20260508200105 | 58 | 184 | 5.2 | 8.7 | 0.00 | 0.00 | 0.00 | 59 | 1022.1 |
| 20260508194551 | 58 | 146 | 2.6 | 11.3 | 0.00 | 0.00 | 0.00 | 60 | 1022.0 |
| 20260508193102 | 57 | 193 | 2.6 | 7.0 | 0.00 | 0.00 | 0.00 | 63 | 1022.0 |
| 20260508191551 | 57 | 186 | 5.2 | 12.2 | 0.00 | 0.00 | 0.00 | 62 | 1022.0 |
| 20260508190053 | 56 | 49 | 2.6 | 12.2 | 0.00 | 0.00 | 0.00 | 65 | 1022.1 |
| 20260508184552 | 55 | 189 | 4.3 | 7.8 | 0.00 | 0.00 | 0.00 | 66 | 1022.1 |
| 20260508183106 | 54 | 290 | 4.3 | 11.3 | 0.00 | 0.00 | 0.00 | 69 | 1022.1 |
| 20260508181612 | 56 | 198 | 4.3 | 8.7 | 0.00 | 0.00 | 0.00 | 68 | 1021.9 |
| 20260508180054 | 54 | 225 | 2.6 | 8.7 | 0.00 | 0.00 | 0.00 | 70 | 1021.7 |
| 20260508174550 | 55 | 192 | 4.3 | 9.6 | 0.00 | 0.00 | 0.00 | 71 | 1021.7 |
| 20260508173056 | 52 | 190 | 2.6 | 8.7 | 0.00 | 0.00 | 0.00 | 75 | 1021.5 |
| 20260508171554 | 52 | 229 | 0.9 | 6.1 | 0.00 | 0.00 | 0.00 | 75 | 1021.3 |
| 20260508170050 | 52 | 184 | 2.6 | 8.7 | 0.00 | 0.00 | 0.00 | 76 | 1021.1 |
| 20260508164549 | 50 | 165 | 2.6 | 6.1 | 0.00 | 0.00 | 0.00 | 78 | 1020.7 |
| 20260508163050 | 50 | 246 | 2.6 | 5.2 | 0.00 | 0.00 | 0.00 | 78 | 1020.7 |
| 20260508161546 | 50 | 195 | 4.3 | 8.7 | 0.00 | 0.00 | 0.00 | 79 | 1020.4 |
| 20260508160053 | 49 | 149 | 4.3 | 8.7 | 0.00 | 0.00 | 0.00 | 79 | 1020.5 |
| 20260508154552 | 49 | 176 | 3.5 | 7.0 | 0.00 | 0.00 | 0.00 | 80 | 1020.4 |
| 20260508153051 | 48 | 107 | 1.7 | 7.8 | 0.00 | 0.00 | 0.00 | 82 | 1020.4 |
| 20260508151550 | 47 | 152 | 3.5 | 7.8 | 0.00 | 0.00 | 0.00 | 83 | 1020.6 |
| 20260508150122 | 47 | 148 | 1.7 | 5.2 | 0.00 | 0.00 | 0.00 | 83 | 1020.7 |
| 20260508144600 | 47 | 192 | 4.3 | 8.7 | 0.00 | 0.00 | 0.00 | 83 | 1020.7 |
| 20260508143054 | 47 | 194 | 4.3 | 7.0 | 0.00 | 0.00 | 0.00 | 84 | 1020.9 |
| 20260508141602 | 47 | 182 | 3.5 | 7.0 | 0.00 | 0.00 | 0.00 | 84 | 1020.5 |
| 20260508140059 | 46 | 192 | 2.6 | 6.1 | 0.00 | 0.00 | 0.00 | 84 | 1020.2 |
| 20260508134551 | 46 | 191 | 3.5 | 6.1 | 0.00 | 0.00 | 0.00 | 83 | 1019.9 |
| 20260508133048 | 46 | 190 | 1.7 | 3.5 | 0.00 | 0.00 | 0.00 | 81 | 1019.5 |
| 20260508131557 | 46 | 204 | 1.7 | 3.5 | 0.00 | 0.00 | 0.00 | 80 | 1019.3 |
| 20260508130050 | 46 | 221 | 2.6 | 4.3 | 0.00 | 0.00 | 0.00 | 80 | 1018.8 |
| 20260508124600 | 47 | 191 | 0.9 | 1.7 | 0.00 | 0.00 | 0.00 | 80 | 1018.7 |
| 20260508123056 | 48 | 182 | 0.9 | 4.3 | 0.00 | 0.00 | 0.00 | 77 | 1018.5 |
| 20260508121552 | 48 | 186 | 0.9 | 2.6 | 0.00 | 0.00 | 0.00 | 78 | 1018.5 |
| 20260508120059 | 48 | 219 | 0.9 | 2.6 | 0.00 | 0.00 | 0.00 | 78 | 1018.5 |
| 20260508114553 | 48 | 200 | 0.9 | 3.5 | 0.00 | 0.00 | 0.00 | 78 | 1018.3 |
| 20260508113124 | 48 | 209 | 1.7 | 3.5 | 0.00 | 0.00 | 0.00 | 79 | 1018.2 |
| 20260508111558 | 49 | 204 | 1.7 | 3.5 | 0.00 | 0.00 | 0.00 | 78 | 1018.0 |
| 20260508110053 | 49 | 193 | 1.7 | 4.3 | 0.00 | 0.00 | 0.00 | 77 | 1017.9 |
| 20260508104602 | 50 | 227 | 2.6 | 4.3 | 0.00 | 0.00 | 0.00 | 77 | 1017.6 |
| 20260508103105 | 50 | 196 | 3.5 | 5.2 | 0.00 | 0.00 | 0.00 | 78 | 1017.6 |
| 20260508101559 | 51 | 237 | 3.5 | 6.1 | 0.00 | 0.00 | 0.00 | 76 | 1017.5 |
| 20260508100052 | 50 | 223 | 2.6 | 3.5 | 0.00 | 0.00 | 0.00 | 77 | 1017.3 |
| 20260508094552 | 51 | 198 | 1.7 | 2.6 | 0.00 | 0.00 | 0.00 | 76 | 1017.2 |
| 20260508093056 | 51 | 226 | 0.9 | 1.7 | 0.00 | 0.00 | 0.00 | 76 | 1017.2 |
| 20260508091553 | 51 | 232 | 0.9 | 1.7 | 0.00 | 0.00 | 0.00 | 74 | 1017.1 |
| 20260508084552 | 52 | 0 | 0.0 | 1.7 | 0.00 | 0.00 | 0.00 | 72 | 1016.9 |
| 20260508083055 | 52 | 267 | 0.0 | 1.7 | 0.00 | 0.00 | 0.00 | 70 | 1016.9 |
| 20260508081604 | 53 | 269 | 0.9 | 1.7 | 0.00 | 0.00 | 0.00 | 69 | 1016.9 |
| 20260508080052 | 53 | 344 | 2.6 | 3.5 | 0.00 | 0.00 | 0.00 | 70 | 1016.7 |
| 20260508074553 | 53 | 352 | 2.6 | 4.3 | 0.00 | 0.00 | 0.00 | 68 | 1016.8 |
| 20260508073059 | 54 | 351 | 1.7 | 4.3 | 0.00 | 0.00 | 0.00 | 68 | 1016.9 |
| 20260508071553 | 54 | 348 | 1.7 | 3.5 | 0.00 | 0.00 | 0.00 | 67 | 1016.8 |
| 20260508064606 | 54 | 344 | 0.9 | 3.5 | 0.00 | 0.00 | 0.00 | 65 | 1017.1 |
| 20260508063055 | 55 | 344 | 2.6 | 4.3 | 0.00 | 0.00 | 0.00 | 63 | 1017.0 |
| 20260508061559 | 56 | 342 | 2.6 | 5.2 | 0.00 | 0.00 | 0.00 | 62 | 1016.9 |
| 20260508060059 | 56 | 344 | 2.6 | 4.3 | 0.00 | 0.00 | 0.00 | 62 | 1017.0 |
| 20260508054620 | 57 | 345 | 2.6 | 5.2 | 0.00 | 0.00 | 0.00 | 57 | 1016.9 |
| 20260508053059 | 58 | 344 | 3.5 | 7.0 | 0.00 | 0.00 | 0.00 | 57 | 1017.1 |
| 20260508051600 | 56 | 360 | 2.6 | 3.5 | 0.00 | 0.00 | 0.00 | 61 | 1017.0 |
| 20260508050057 | 57 | 349 | 1.7 | 4.3 | 0.00 | 0.00 | 0.00 | 60 | 1017.1 |
| 20260508044556 | 58 | 345 | 1.7 | 3.5 | 0.00 | 0.00 | 0.00 | 62 | 1017.0 |
| 20260508043058 | 57 | 344 | 1.7 | 3.5 | 0.00 | 0.00 | 0.00 | 61 | 1016.7 |
| 20260508041555 | 58 | 348 | 1.7 | 3.5 | 0.00 | 0.00 | 0.00 | 56 | 1016.7 |
| 20260508040105 | 59 | 14 | 1.7 | 2.6 | 0.00 | 0.00 | 0.00 | 47 | 1016.7 |
| 20260508034553 | 60 | 22 | 0.0 | 1.7 | 0.00 | 0.00 | 0.00 | 47 | 1016.5 |
| 20260508033051 | 61 | 26 | 0.9 | 3.5 | 0.00 | 0.00 | 0.00 | 44 | 1016.4 |
| 20260508031603 | 61 | 22 | 1.7 | 4.3 | 0.00 | 0.00 | 0.00 | 44 | 1016.3 |
| 20260508030057 | 61 | 13 | 1.7 | 2.6 | 0.00 | 0.00 | 0.00 | 48 | 1016.3 |
| 20260508024553 | 61 | 18 | 1.7 | 2.6 | 0.00 | 0.00 | 0.00 | 48 | 1016.3 |
| 20260508023050 | 62 | 5 | 0.9 | 1.7 | 0.00 | 0.00 | 0.00 | 48 | 1016.3 |
| 20260508021546 | 63 | 19 | 1.7 | 3.5 | 0.00 | 0.00 | 0.00 | 46 | 1016.2 |
| 20260508020052 | 63 | 13 | 1.7 | 3.5 | 0.00 | 0.00 | 0.00 | 49 | 1016.4 |
| 20260508014548 | 63 | 38 | 1.7 | 3.5 | 0.00 | 0.00 | 0.00 | 47 | 1016.4 |
| 20260508013053 | 63 | 348 | 0.9 | 1.7 | 0.00 | 0.00 | 0.00 | 48 | 1016.5 |
| 20260508011554 | 64 | 15 | 2.6 | 5.2 | 0.00 | 0.00 | 0.00 | 46 | 1016.6 |
| 20260508010050 | 65 | 17 | 2.6 | 4.3 | 0.00 | 0.00 | 0.00 | 42 | 1016.7 |
| 20260508004550 | 66 | 76 | 0.9 | 2.6 | 0.00 | 0.00 | 0.00 | 40 | 1016.7 |
| 20260508003055 | 66 | 20 | 0.9 | 3.5 | 0.00 | 0.00 | 0.00 | 42 | 1017.0 |
| 20260508001553 | 66 | 26 | 0.9 | 3.5 | 0.00 | 0.00 | 0.00 | 39 | 1017.0 |
| 20260508000108 | 67 | 228 | 0.9 | 3.5 | 0.00 | 0.00 | 0.00 | 35 | 1017.2 |
| 20260507234550 | 66 | 55 | 1.7 | 3.5 | 0.00 | 0.00 | 0.00 | 36 | 1017.3 |
| 20260507233051 | 66 | 323 | 1.7 | 4.3 | 0.00 | 0.00 | 0.00 | 38 | 1017.5 |
| 20260507231558 | 66 | 148 | 1.7 | 3.5 | 0.00 | 0.00 | 0.00 | 37 | 1017.5 |
| 20260507230056 | 66 | 194 | 1.7 | 3.5 | 0.00 | 0.00 | 0.00 | 39 | 1017.6 |
| 20260507224553 | 66 | 5 | 1.7 | 4.3 | 0.00 | 0.00 | 0.00 | 45 | 1017.8 |
| 20260507223055 | 67 | 241 | 0.9 | 4.3 | 0.00 | 0.00 | 0.00 | 44 | 1018.2 |
| 20260507221601 | 65 | 172 | 2.6 | 7.0 | 0.00 | 0.00 | 0.00 | 44 | 1018.2 |
| 20260507220056 | 64 | 200 | 0.0 | 4.3 | 0.00 | 0.00 | 0.00 | 48 | 1018.3 |
| 20260507214554 | 65 | 217 | 0.9 | 6.1 | 0.00 | 0.00 | 0.00 | 51 | 1018.4 |
| 20260507213052 | 64 | 113 | 0.9 | 7.0 | 0.00 | 0.00 | 0.00 | 49 | 1018.6 |